Theta_e
300 299 298 297 297 298 299 298 297 297 296 294 294 293 293 293 293 292 293 293 293 292 291 291 290 289 288 289 290 289 288 288 288 287 287 288 288 288 288 287 287 287 286 286 285 286 284 284 284 283 283 283 283 283 282 282 281 281 283 284 281 280 280 280 281 281 279 279 280 280 281 281 283 283 282 282 282 281 281 281 282 282 281 282 283
298 297 296 294 296 296 297 297 296 295 295 294 293 293 293 293 293 293 293 293 293 292 292 292 291 291 290 290 290 289 289 288 288 287 288 288 288 288 288 287 287 286 286 285 285 285 284 284 284 283 283 283 283 283 282 285 283 281 281 280 281 280 280 281 282 279 277 277 277 278 278 280 282 281 282 280 282 282 282 281 281 282 282 283 283
298 298 296 295 295 295 296 296 296 297 296 294 294 293 292 292 293 293 293 292 293 293 292 292 292 291 291 290 290 288 288 289 288 288 288 287 288 288 287 287 287 286 286 286 285 284 284 284 284 283 283 284 283 282 282 282 281 281 281 280 279 280 280 282 280 280 277 278 278 278 275 276 280 278 279 281 282 281 281 281 283 281 282 281 282
297 298 298 294 294 295 295 295 296 296 295 293 293 293 293 293 292 292 292 292 292 292 293 292 292 290 288 289 288 288 287 288 287 286 286 286 287 287 287 287 287 286 285 285 285 284 284 284 283 283 283 284 282 282 281 281 280 280 280 281 280 278 278 279 282 279 279 278 275 277 275 276 275 275 277 280 281 279 280 281 281 281 281 281 282
298 298 297 293 293 294 295 295 295 295 295 294 293 293 293 292 292 292 292 292 292 292 292 291 290 288 287 287 287 286 286 285 285 284 286 286 287 286 287 286 286 286 285 285 285 284 283 283 283 283 283 282 282 281 281 281 281 280 281 281 279 278 278 277 279 280 279 280 278 276 275 274 274 274 277 277 277 279 280 280 281 281 280 280 281
299 299 299 295 294 294 294 294 294 295 295 295 294 294 293 292 292 292 292 292 292 292 292 291 290 289 287 286 285 286 285 285 285 286 285 286 286 287 286 286 286 286 285 285 285 284 283 283 283 282 282 282 282 281 281 280 280 280 280 281 279 279 278 278 277 280 280 282 279 278 277 274 274 276 276 274 278 281 280 279 279 279 279 280 281
297 298 298 294 293 293 294 294 294 295 296 295 294 293 293 292 292 292 292 291 292 291 291 291 290 289 288 288 288 287 287 287 287 287 287 287 286 286 286 286 286 286 285 285 284 284 283 283 282 282 282 282 282 281 280 280 280 280 281 279 279 282 279 277 278 277 277 278 280 279 279 280 278 277 274 275 274 276 276 278 278 279 279 279 280
296 295 296 296 294 294 294 294 294 295 295 294 293 293 292 292 292 291 292 291 291 291 291 291 290 289 288 288 288 288 288 287 287 287 287 287 286 286 286 285 285 286 285 284 284 284 283 282 282 282 282 281 282 281 281 280 280 281 281 280 280 281 279 279 277 277 276 278 280 278 279 279 277 277 277 276 274 273 276 279 279 277 278 279 280
295 295 295 295 294 294 295 294 295 294 293 293 293 293 293 292 292 291 291 291 291 290 291 290 291 290 289 288 288 288 288 287 287 287 286 286 286 285 285 285 285 285 285 284 284 284 284 283 282 281 281 281 282 281 280 280 280 280 280 279 280 279 279 279 277 277 277 277 276 276 276 276 276 276 276 276 275 273 273 274 276 278 278 278 279
294 295 296 295 295 295 295 294 293 293 293 293 292 292 292 292 291 291 291 291 291 290 291 290 290 290 289 288 288 287 287 285 286 286 286 285 285 285 285 284 284 284 284 284 283 283 283 282 282 281 281 281 282 280 280 280 280 280 280 279 279 279 279 279 278 277 278 277 277 277 276 276 276 275 275 274 275 275 273 274 275 275 274 276 279
297 295 294 294 293 293 292 293 293 292 291 291 292 292 292 291 291 290 291 291 290 290 290 290 290 289 289 289 288 287 286 285 285 285 285 284 285 284 284 284 284 284 283 283 283 283 283 282 282 281 281 282 282 280 280 280 280 279 279 279 279 278 278 279 281 278 278 277 277 276 276 276 275 275 274 275 274 273 273 274 274 275 275 274 276
295 293 293 292 291 290 291 292 291 291 290 290 291 291 291 291 291 290 290 290 290 290 290 290 290 289 289 289 288 288 287 286 285 285 285 285 285 284 284 284 283 284 283 283 283 283 282 282 282 281 281 281 281 280 280 280 279 279 279 279 278 278 278 279 278 278 277 277 277 277 276 277 277 276 276 276 275 275 274 273 274 275 274 275 277
294 294 293 292 292 292 291 292 290 289 291 291 291 291 291 291 290 290 290 290 290 290 289 289 289 289 289 289 289 288 288 287 286 286 286 285 285 285 284 283 283 282 282 282 283 282 282 281 281 281 280 281 280 280 280 279 279 279 278 278 278 278 278 278 277 277 277 276 276 276 276 277 276 276 277 276 276 276 274 273 274 274 272 273 275
294 294 293 293 293 293 293 292 292 291 291 291 290 290 291 291 290 290 291 290 290 290 289 289 289 290 290 289 289 289 288 287 287 287 286 286 286 285 285 284 284 283 283 283 283 283 282 282 282 281 280 280 280 280 279 279 279 278 278 278 277 277 277 277 277 276 276 276 276 275 276 276 275 277 276 276 275 275 274 273 273 273 273 273 275
292 291 293 294 294 293 293 293 292 291 291 290 290 290 290 290 290 290 290 290 290 290 290 289 290 290 290 290 289 289 288 288 287 288 287 286 286 285 285 285 284 284 284 284 283 283 282 282 281 280 280 280 280 279 280 279 279 278 278 277 277 277 277 277 276 276 276 275 275 275 276 276 275 276 275 276 276 275 275 274 273 271 271 273 273
292 291 292 293 293 292 292 292 292 291 290 290 290 290 290 290 290 290 291 290 290 290 290 290 290 290 289 289 289 289 288 288 288 287 287 287 286 286 285 285 285 284 284 283 283 282 282 281 280 280 279 279 279 279 279 278 278 278 277 277 277 278 276 276 276 276 276 275 275 275 275 275 275 276 276 275 275 276 275 275 274 272 270 269 272
290 291 293 293 291 292 293 292 291 291 290 290 291 291 291 291 290 290 290 290 290 290 290 290 290 289 289 289 289 288 288 287 287 287 287 286 286 286 285 285 284 284 283 283 282 282 281 280 280 279 279 279 279 279 278 278 278 278 277 277 276 277 276 276 275 275 275 275 275 275 275 275 275 275 275 276 275 275 275 274 274 273 273 270 269
291 292 293 293 293 292 292 292 292 292 292 291 291 291 291 291 291 290 290 290 290 290 290 290 289 289 289 288 289 289 288 288 288 287 286 285 285 285 284 284 284 284 283 283 282 281 281 281 280 279 279 278 278 278 278 278 277 277 277 276 276 276 276 276 275 275 275 275 275 275 275 275 275 275 275 275 275 275 275 274 274 274 274 272 271
292 293 293 293 293 293 293 292 292 292 292 292 292 291 291 291 291 290 290 290 290 291 290 290 290 290 290 289 289 288 288 288 287 287 285 285 284 284 284 284 283 282 282 282 281 281 280 280 279 279 278 278 278 278 277 277 277 276 276 276 275 275 275 275 275 275 275 275 274 274 274 274 274 274 274 274 274 275 275 275 274 274 274 273 272
294 294 294 294 294 293 293 292 291 291 291 291 291 290 290 291 290 290 290 290 289 289 289 289 290 290 290 289 289 289 288 288 287 286 285 284 284 284 283 282 282 282 282 281 281 280 280 279 279 278 278 278 277 277 277 276 276 276 276 275 275 275 274 274 274 275 275 274 274 273 273 273 273 273 273 273 273 274 275 274 274 274 273 273 273
293 293 294 294 294 293 291 290 289 288 288 288 289 290 291 290 290 290 290 289 289 290 289 290 290 289 289 288 288 288 287 287 286 285 285 284 284 284 283 283 281 281 281 281 280 280 280 279 279 278 278 277 277 276 276 276 276 275 275 275 274 274 274 274 274 273 273 273 273 273 273 273 274 273 273 273 273 273 273 273 273 273 273 273 272
292 293 294 295 294 294 290 288 286 286 287 288 289 289 288 289 290 290 290 289 289 289 289 289 289 289 288 288 288 287 287 286 285 285 284 284 283 283 283 281 281 281 281 280 280 280 279 279 278 278 277 277 277 276 276 276 275 275 274 274 274 274 273 273 273 272 272 273 273 272 273 273 274 273 273 273 273 273 273 272 272 272 271 272 273
294 294 294 294 293 291 289 288 289 289 290 288 287 288 289 289 289 289 289 289 290 290 289 289 289 288 288 288 288 286 286 285 285 284 284 284 283 283 282 281 281 280 280 280 280 279 279 278 278 277 277 276 276 276 276 275 275 275 274 273 273 273 273 272 272 272 272 273 272 273 273 273 273 272 273 273 273 273 273 272 271 272 271 271 271
293 292 290 291 289 289 289 289 290 289 288 288 289 289 289 289 289 289 289 289 289 289 289 288 288 288 288 287 287 286 285 285 284 284 284 284 283 282 282 281 281 280 279 279 279 279 278 278 277 277 276 276 276 275 275 275 275 274 274 273 273 273 273 273 272 272 272 272 272 272 272 272 272 272 272 272 273 273 272 272 271 271 271 271 271
292 292 289 288 288 290 292 292 292 291 290 290 289 289 289 289 289 289 289 290 290 290 289 288 288 287 287 287 286 285 284 284 284 284 284 283 282 282 281 280 280 279 279 278 278 278 277 277 277 276 276 275 275 275 274 274 274 274 273 273 273 272 272 272 272 273 273 272 272 272 272 272 272 271 272 272 272 272 272 271 271 271 271 271 271
291 289 286 287 290 291 291 291 291 291 291 291 290 290 290 289 289 289 289 289 289 289 289 288 288 287 286 286 285 285 285 284 284 284 284 283 282 281 280 280 279 279 278 278 278 277 277 277 276 276 275 275 275 274 274 274 273 273 273 272 272 272 272 272 272 273 273 273 272 272 272 272 272 271 271 271 272 271 271 271 271 271 271 272 272
292 290 289 288 288 289 291 291 292 292 291 291 291 290 290 289 289 289 289 289 289 288 288 288 287 286 286 286 285 285 285 285 285 284 284 282 281 280 280 279 279 278 278 277 277 276 276 276 276 275 275 274 274 274 273 273 272 272 272 272 272 272 271 272 272 272 272 272 272 272 272 272 271 272 271 271 271 271 271 271 271 272 272 272 272
292 290 293 294 295 294 292 292 292 292 292 291 291 290 290 290 289 289 288 288 288 287 287 287 287 286 286 286 286 286 285 285 284 284 283 282 281 279 279 279 278 278 277 277 276 276 276 275 275 274 274 274 273 273 272 272 272 271 271 272 271 271 271 271 271 272 272 272 272 272 272 272 272 272 272 271 271 271 272 272 273 273 274 273 273
289 291 292 292 292 294 294 292 292 291 291 291 291 290 289 289 289 289 288 288 288 287 287 287 286 286 286 286 286 285 285 284 283 282 281 280 280 279 279 278 277 277 277 277 276 276 275 274 273 273 273 273 273 272 272 272 271 271 271 271 271 271 271 271 271 272 272 272 272 272 272 272 273 274 275 275 275 275 273 273 274 274 274 274 273
290 292 292 292 292 292 292 293 292 291 291 291 291 290 289 289 289 289 288 287 287 286 286 286 286 286 286 286 285 284 284 283 282 281 280 280 279 278 278 277 277 277 276 276 275 275 274 274 273 272 272 272 272 272 274 277 275 272 271 271 271 271 271 271 271 271 271 272 272 272 273 275 275 276 276 278 278 279 280 278 277 277 276 275 275
294 292 291 292 292 292 293 293 293 293 293 293 293 292 291 289 289 288 287 287 287 286 286 286 286 286 286 285 284 283 282 281 281 281 279 278 278 277 277 276 276 275 275 274 274 274 273 273 273 272 272 272 272 272 277 279 279 277 272 271 271 272 272 272 272 271 271 272 273 274 274 275 276 277 277 278 279 279 279 279 279 279 279 277 275
290 291 292 291 290 291 291 292 292 293 294 295 294 292 290 289 289 288 288 287 286 286 286 286 286 286 285 284 283 282 281 281 280 279 278 278 277 276 275 275 275 274 274 273 273 273 273 273 273 272 272 272 272 276 279 280 280 279 276 272 272 272 272 272 272 272 273 273 274 274 275 275 275 275 274 274 275 277 278 278 278 279 279 279 280
288 288 288 289 290 290 291 292 292 293 294 294 293 292 291 290 288 288 287 285 285 285 286 285 285 284 284 283 282 281 280 280 279 279 277 276 276 275 275 274 274 274 273 273 273 273 272 273 272 272 271 272 272 277 280 281 281 280 278 275 272 272 272 273 273 274 274 274 274 275 275 274 273 276 275 274 273 273 276 277 277 278 278 279 279
287 287 287 288 289 289 290 290 291 291 292 293 292 291 292 291 288 284 284 285 285 285 285 285 284 283 283 282 281 280 280 279 278 277 276 276 275 275 275 275 274 273 273 273 273 272 272 272 272 272 271 271 271 276 280 281 281 281 280 276 272 273 274 275 274 274 275 275 275 274 273 272 272 273 273 273 272 273 273 273 274 274 275 276 278
285 285 286 286 287 288 289 289 290 291 291 292 291 291 290 289 286 285 284 284 284 284 284 284 283 283 282 281 281 280 279 278 277 277 276 275 275 275 275 274 274 273 273 273 272 272 272 272 271 271 271 271 270 277 281 282 282 282 282 279 274 275 275 275 275 275 275 275 275 273 272 272 272 272 272 273 273 273 273 274 274 275 275 275 276
284 284 285 285 286 286 287 288 289 290 290 291 291 291 289 289 284 284 283 284 284 284 284 283 282 282 281 281 280 279 279 278 277 276 275 275 275 275 275 274 274 273 273 273 272 272 271 271 271 270 270 269 270 278 281 282 282 282 282 277 275 275 275 275 275 275 275 275 274 273 272 272 272 272 274 277 276 276 275 274 274 274 275 275 275
284 284 284 285 286 286 287 288 288 289 289 289 288 287 287 286 282 283 282 282 283 283 283 283 283 282 282 281 280 279 278 277 276 276 275 275 275 275 275 274 273 273 273 272 272 271 271 270 270 270 270 270 270 277 281 282 282 282 281 276 276 275 275 274 274 274 273 273 272 272 272 272 272 272 275 277 278 277 275 274 274 274 274 274 275
283 284 284 285 286 287 288 288 288 288 288 285 284 284 283 283 282 280 280 281 282 283 283 283 283 282 281 280 280 279 278 277 276 275 275 276 275 275 275 274 273 272 272 272 272 271 271 270 270 270 270 269 269 276 281 281 281 281 279 275 275 274 273 273 272 272 272 271 272 274 274 272 273 273 276 277 277 277 274 274 273 273 273 273 273
284 283 284 285 286 286 287 288 289 288 288 283 281 280 280 280 279 279 278 279 281 282 282 282 283 282 281 280 279 279 278 277 276 276 276 276 275 275 274 273 273 273 272 272 271 270 270 270 270 270 272 270 269 275 281 281 281 281 278 275 274 273 272 271 271 270 272 272 272 274 275 275 275 275 277 277 278 277 274 274 274 274 272 272 273
284 285 286 286 286 286 287 287 288 287 286 283 281 281 280 279 278 276 277 279 280 281 282 281 280 279 279 278 278 278 278 277 277 277 276 276 275 274 273 272 272 272 271 271 270 270 269 269 269 269 270 270 269 271 277 280 280 281 280 274 273 272 270 270 270 270 270 271 272 273 275 276 277 277 277 277 277 277 275 275 274 273 272 271 272
284 285 286 286 287 287 286 287 288 287 285 284 281 282 282 281 278 277 278 279 280 280 280 279 279 278 278 278 278 279 278 278 277 276 276 275 274 273 272 271 271 271 270 270 269 269 268 268 268 269 269 268 268 270 275 280 280 280 280 276 273 272 271 270 270 270 271 271 272 273 273 274 275 276 276 276 277 277 278 275 274 273 272 272 275
285 286 286 286 286 286 287 287 288 288 286 283 282 283 283 281 280 281 280 279 278 278 278 278 278 278 277 277 278 278 278 277 276 276 274 274 273 273 272 271 271 270 269 269 269 268 267 267 267 268 268 268 270 272 272 278 279 280 280 278 273 272 272 271 270 270 271 272 272 272 272 273 274 275 275 276 277 277 277 275 273 275 276 276 274
283 284 285 285 285 285 286 286 287 287 286 284 282 283 284 283 283 284 280 279 277 277 277 277 277 277 276 276 276 277 277 276 275 275 274 273 272 271 271 271 270 269 269 268 267 267 266 266 266 266 267 268 269 271 274 275 279 280 280 279 276 275 276 272 271 270 272 272 272 272 271 273 274 274 275 276 276 276 275 273 275 275 275 276 274
283 284 284 285 284 285 285 286 287 287 287 285 283 283 284 283 285 284 281 278 277 277 277 277 276 276 275 275 275 275 275 274 274 274 273 272 271 270 270 270 270 269 268 267 267 267 266 266 265 266 266 267 269 270 273 276 277 280 280 280 278 277 277 273 273 272 273 272 271 270 270 273 274 275 275 275 275 274 273 273 274 274 274 273 267
282 282 284 284 284 284 285 285 286 286 286 286 284 283 283 283 286 283 282 279 277 276 276 275 274 274 275 274 274 274 274 273 273 273 272 271 270 269 269 269 269 269 268 267 267 266 265 266 265 265 266 267 268 269 271 274 277 278 279 279 278 278 277 277 274 273 272 272 272 273 273 274 274 273 273 273 271 270 271 272 273 273 271 264 263
282 282 283 283 283 284 284 283 284 285 285 286 285 284 283 285 284 281 280 279 277 276 275 275 275 274 274 273 273 273 273 272 272 272 272 271 270 269 269 268 268 268 268 267 267 266 266 266 266 266 266 266 267 268 270 272 274 276 277 278 278 278 277 277 274 272 273 273 273 274 274 272 271 270 268 267 265 266 270 271 271 269 264 262 261
280 281 282 282 282 281 281 282 282 283 284 285 285 286 285 285 284 282 279 278 277 276 276 275 274 274 273 273 273 272 272 271 271 271 271 271 269 269 269 268 268 268 267 267 267 266 266 266 266 266 266 267 267 268 269 270 271 272 273 274 275 275 276 275 273 271 271 269 270 270 268 270 269 269 269 268 268 267 264 263 262 262 261 261 261
280 280 281 280 280 280 280 280 281 282 283 284 285 285 286 286 285 283 278 277 276 276 276 275 274 273 272 272 272 270 270 270 270 271 270 270 269 269 269 268 268 268 268 267 266 266 266 266 266 267 266 266 266 267 267 268 269 270 270 271 272 271 271 269 269 269 268 268 266 266 264 261 259 258 258 257 259 259 260 261 260 260 260 262 264
277 278 279 278 278 278 279 279 280 281 282 283 283 285 285 285 285 283 278 277 276 275 275 275 274 272 271 271 271 271 271 271 270 270 270 270 269 269 269 269 270 270 270 269 267 267 267 268 268 268 266 265 266 266 267 271 269 272 270 270 270 269 269 268 270 271 265 262 261 257 256 257 254 257 256 255 256 257 257 258 258 258 259 260 260
276 276 276 276 277 277 277 277 278 279 280 281 282 283 284 285 284 282 278 277 277 276 274 274 273 272 271 270 270 270 270 270 270 269 269 269 270 272 271 269 269 272 274 274 273 269 269 269 269 269 268 267 266 267 272 274 274 274 274 274 273 273 272 270 272 273 266 258 257 254 255 255 254 254 255 255 256 256 256 257 257 261 261 259 260
274 274 274 274 274 275 275 276 276 278 278 279 280 281 282 283 284 282 278 277 277 276 274 274 271 271 271 270 270 270 269 269 269 269 269 268 267 270 273 273 272 272 273 274 275 274 274 273 270 268 270 271 271 273 274 275 275 275 275 275 275 274 274 274 273 267 261 257 256 256 256 255 254 254 254 255 255 255 256 256 257 258 258 259 260
Wind_Speed
19 10 8 7 9 12 11 10 11 10 11 12 14 15 16 17 16 17 14 14 13 13 12 12 12 9 7 11 13 10 10 7 7 7 8 8 8 9 9 8 8 8 7 8 8 7 6 6 7 5 5 6 6 6 5 5 4 4 5 3 4 3 1 0 1 1 2 3 2 3 6 5 3 1 1 2 2 4 2 2 2 2 3 4 4
11 11 8 6 8 9 9 10 10 12 12 14 17 19 17 16 18 16 13 14 15 15 14 13 13 15 15 15 12 10 10 11 11 10 10 8 9 9 8 8 8 8 8 7 7 8 8 7 7 7 7 6 5 4 5 4 4 4 5 4 1 3 1 0 3 2 4 2 6 5 4 7 2 2 2 3 8 5 3 1 1 2 4 4 3
14 15 9 8 8 9 10 11 13 17 17 19 19 16 15 16 16 15 15 15 15 14 13 14 12 10 10 8 11 7 6 6 6 6 6 8 8 9 8 8 8 8 8 8 8 8 8 8 8 7 7 7 7 6 5 5 5 5 4 6 5 2 1 1 3 4 1 3 2 1 4 7 5 3 3 7 7 3 1 2 3 2 4 3 3
18 19 17 8 8 9 9 10 13 12 11 11 12 17 15 15 15 16 15 15 14 14 14 11 9 6 4 5 5 6 5 5 5 5 6 6 8 8 8 9 9 8 8 8 7 7 8 9 7 7 8 7 7 8 7 6 5 4 4 4 6 4 2 0 1 3 2 3 6 1 2 1 4 2 7 9 2 2 0 3 2 3 3 3 3
18 18 14 7 9 12 14 13 10 12 13 16 16 17 14 18 17 16 15 15 14 14 14 10 9 7 6 6 5 5 4 5 5 6 8 8 7 9 11 9 9 9 9 8 8 9 7 7 8 8 8 7 7 7 7 7 6 5 5 5 4 6 4 2 1 2 3 2 3 2 4 4 1 3 7 7 1 5 3 2 3 3 3 3 3
19 19 17 9 11 8 7 9 12 14 15 16 16 16 14 14 14 15 12 12 13 13 14 12 13 13 11 10 10 10 9 10 15 17 13 14 14 7 6 9 9 8 8 8 8 7 8 8 7 8 8 7 7 7 6 5 5 5 5 5 5 4 5 4 2 1 2 1 1 2 2 2 4 4 5 6 3 7 4 1 1 3 2 4 4
13 14 14 8 10 9 12 14 15 15 16 12 11 13 13 13 14 15 14 13 12 13 14 12 12 12 16 17 15 16 15 13 9 6 10 8 6 10 9 8 9 10 9 9 8 8 7 7 8 8 7 7 6 7 7 7 6 5 4 4 5 6 5 4 5 3 1 1 1 1 1 1 1 2 3 4 11 3 3 0 2 3 4 3 3
11 11 13 12 10 14 16 16 13 17 12 10 11 10 14 15 15 14 11 12 12 13 15 15 15 14 14 13 12 13 15 13 11 10 7 7 9 10 9 9 9 9 10 9 9 8 8 8 7 7 8 7 7 7 8 6 6 4 5 4 4 5 6 7 5 5 5 2 1 1 0 0 1 2 1 3 4 10 17 8 5 2 0 3 6
8 11 13 14 13 15 13 13 15 9 9 13 14 14 13 12 13 12 13 13 13 15 16 16 14 15 15 13 13 12 10 7 7 7 8 9 10 8 9 9 9 8 9 10 9 8 8 8 8 8 8 8 7 7 6 7 8 8 7 6 6 5 5 5 6 5 5 5 3 0 1 1 1 2 2 3 5 3 10 9 16 10 4 2 3
11 15 14 10 11 11 11 9 7 11 10 9 9 10 12 12 14 16 15 13 13 15 16 16 15 13 14 15 16 12 9 6 8 9 9 9 11 10 9 9 9 9 9 9 9 8 8 8 8 9 9 8 7 7 7 7 7 7 7 6 6 6 4 6 5 5 5 4 4 5 3 1 0 2 2 3 3 6 10 7 9 13 17 11 14
13 10 7 7 6 7 6 10 10 7 7 10 11 12 12 13 14 15 15 12 13 15 16 17 15 14 15 16 17 15 13 10 10 10 9 10 12 12 11 10 9 10 8 8 10 9 9 8 9 8 7 7 7 8 8 8 8 7 6 5 6 7 6 6 4 4 4 5 4 5 5 5 5 4 3 2 3 4 5 8 8 7 9 14 8
6 4 7 5 3 5 6 8 8 10 8 10 10 11 12 13 13 15 13 15 14 14 16 16 15 16 15 15 17 16 15 13 15 15 15 15 14 13 10 8 9 8 8 8 9 10 9 9 8 8 8 8 9 7 7 7 7 6 6 6 6 5 5 6 6 5 5 5 4 4 5 4 4 5 4 4 5 6 6 10 10 9 8 7 4
6 7 5 6 9 10 11 9 7 10 14 14 13 13 12 12 15 17 18 17 16 16 17 17 16 17 17 17 15 13 14 15 15 14 14 14 13 12 12 12 10 10 11 11 11 12 10 10 10 10 9 9 8 8 7 7 7 7 7 7 6 6 7 7 7 6 7 6 6 4 5 4 5 4 3 4 4 5 5 10 9 4 10 11 7
9 7 6 8 9 10 11 12 13 11 11 12 12 13 13 13 15 18 19 16 14 15 17 17 19 19 17 16 15 13 14 14 14 14 14 13 12 14 15 14 14 15 14 15 13 13 11 11 10 9 7 7 8 8 8 8 8 8 7 7 7 6 6 7 6 6 5 5 4 5 3 4 4 3 3 3 4 4 6 7 10 8 8 13 6
9 5 6 9 10 10 11 12 12 11 12 12 12 13 12 13 15 18 15 16 18 19 17 19 18 17 16 15 14 13 14 13 13 12 12 13 13 14 14 12 13 13 13 12 10 12 12 10 10 10 9 9 9 9 8 8 7 7 6 7 6 6 6 6 6 6 6 4 3 3 3 2 3 2 3 4 3 5 5 6 6 12 10 5 9
3 3 6 8 8 8 8 9 10 9 10 10 11 12 13 16 16 17 19 18 17 16 16 18 17 14 14 15 16 15 12 12 11 10 12 13 13 14 14 14 12 11 10 10 11 12 12 11 10 10 9 9 9 9 9 8 8 8 7 7 7 4 6 6 5 5 4 4 3 3 2 3 2 3 3 4 4 4 5 4 4 4 6 14 6
5 4 6 6 5 7 10 9 8 8 10 14 16 16 19 17 16 17 17 14 16 18 19 16 14 12 14 15 14 13 15 16 16 16 14 12 12 12 12 13 11 10 11 11 12 12 11 11 11 10 11 10 10 9 9 8 8 8 8 8 7 5 6 6 5 5 5 5 4 4 5 4 3 2 3 3 4 3 4 4 4 5 5 5 10
7 7 7 7 7 8 7 7 10 15 17 16 16 15 13 13 14 16 14 16 18 18 18 16 17 17 16 16 16 17 16 16 13 13 12 11 12 11 10 10 14 12 11 10 12 13 11 12 11 11 10 10 11 9 9 9 9 7 7 7 6 6 6 5 5 6 5 5 4 3 4 4 2 3 4 3 3 4 4 4 5 4 4 7 6
10 9 8 8 9 11 12 13 13 11 10 12 12 12 11 11 13 14 16 18 15 11 10 10 11 12 13 17 18 17 14 13 12 10 9 12 14 13 13 13 9 10 11 12 12 13 12 12 11 11 10 11 10 10 9 9 8 7 7 7 6 7 6 6 5 5 5 5 5 5 4 4 3 4 3 3 3 3 4 4 5 4 5 6 6
12 10 10 10 9 10 11 12 13 15 13 11 11 10 12 14 12 13 13 11 11 14 15 16 17 16 15 14 14 15 15 14 13 12 12 14 14 13 13 12 14 11 11 13 13 14 14 14 12 12 11 10 10 9 9 8 8 7 8 7 7 7 7 7 6 5 5 5 5 5 5 5 4 4 4 3 3 3 3 4 4 4 5 5 5
13 9 11 11 11 10 9 7 6 4 5 6 8 13 14 9 11 13 16 16 15 16 15 16 14 16 15 16 16 16 16 14 12 13 13 13 11 12 13 12 10 13 12 13 14 14 14 14 13 12 13 12 11 10 9 9 8 8 8 8 8 8 8 6 6 5 4 5 5 5 5 4 4 4 4 4 4 4 4 5 5 5 4 4 6
12 14 12 12 12 11 6 3 3 5 6 9 11 8 8 13 16 14 12 12 15 15 15 17 16 16 17 17 17 13 13 12 14 13 14 13 13 13 13 11 14 13 12 13 13 12 12 13 13 13 12 11 11 11 10 10 10 10 9 7 8 8 7 6 6 6 5 5 5 5 5 4 5 5 4 5 4 5 5 4 5 5 6 6 6
13 14 12 10 8 6 4 6 7 10 11 9 7 10 13 15 14 12 14 17 18 19 17 15 14 14 16 15 14 12 12 14 15 13 14 14 13 12 11 15 14 13 12 12 13 12 13 13 12 13 12 12 12 12 11 11 10 10 10 8 8 8 8 8 8 7 7 6 6 6 6 5 4 5 6 5 5 5 5 5 6 5 6 6 6
12 13 10 10 6 5 5 6 10 10 9 10 9 9 10 11 14 14 17 19 16 15 14 14 14 15 15 13 13 12 13 14 15 15 16 14 12 11 11 13 13 12 14 12 12 13 12 13 13 13 13 12 12 11 10 10 10 10 10 10 9 9 8 8 8 7 7 7 7 7 6 6 5 5 6 5 5 5 5 5 6 6 6 7 7
14 16 11 6 6 8 10 9 9 10 10 10 11 12 13 15 13 14 17 18 17 14 13 14 14 15 14 14 14 13 14 15 16 14 16 14 13 12 11 13 12 13 13 12 12 11 12 13 13 14 13 12 12 12 12 10 9 9 10 9 9 9 8 8 8 8 7 7 7 7 6 6 6 6 6 6 6 7 6 6 6 6 7 7 7
12 9 5 7 8 8 8 9 11 11 10 10 11 12 14 14 15 15 15 13 14 13 14 14 14 14 14 15 15 14 16 18 18 16 16 15 14 13 13 11 13 14 13 13 15 13 13 14 12 12 12 12 11 11 11 11 10 9 9 8 9 9 9 8 8 7 7 7 7 7 6 6 6 7 7 7 7 8 6 7 7 7 8 8 9
12 7 6 7 8 12 13 11 10 8 8 9 10 13 13 14 15 14 14 13 13 12 13 13 14 14 14 15 15 17 18 18 17 16 13 12 13 13 13 14 12 14 15 14 13 14 12 13 12 11 12 12 11 10 10 10 10 10 10 10 10 9 8 7 7 7 7 7 7 7 7 7 7 8 8 8 7 7 6 7 8 9 9 9 10
7 6 11 15 18 15 11 10 9 10 9 10 11 12 13 14 16 14 14 13 10 11 13 15 14 15 16 17 17 18 17 16 13 12 12 13 12 12 13 12 11 13 14 15 15 15 12 11 11 11 11 10 11 11 10 10 10 11 11 10 10 9 8 7 7 7 7 7 7 7 7 7 8 8 8 7 7 7 6 8 8 9 9 10 10
7 11 12 10 12 13 14 12 11 9 10 13 12 12 11 11 12 12 10 13 12 12 14 14 14 16 17 17 16 13 11 10 11 11 12 13 13 13 12 12 12 12 11 13 13 13 13 12 10 11 11 11 11 12 11 12 12 12 10 10 10 9 9 9 8 8 8 7 7 7 7 8 9 12 15 12 11 10 7 8 9 10 10 10 10
8 11 11 11 12 13 14 14 13 13 14 14 13 13 13 15 15 14 12 12 10 14 14 14 15 17 16 15 13 12 12 12 13 14 14 13 13 13 13 13 13 13 12 11 12 12 13 14 14 12 11 11 11 10 13 20 16 12 12 10 9 10 9 9 8 8 7 8 8 7 7 13 15 15 15 15 15 16 17 12 8 6 7 7 8
12 9 11 12 13 14 15 15 15 16 16 16 16 15 13 13 13 10 12 12 12 15 14 14 17 17 15 13 12 12 12 14 14 13 12 13 14 13 13 13 13 12 13 13 13 14 13 13 14 14 14 12 11 10 22 23 23 22 14 11 10 9 9 9 8 8 8 8 7 8 8 11 12 12 11 16 15 16 16 16 18 18 15 11 8
17 19 18 15 13 14 14 15 16 17 18 17 16 14 12 14 13 12 13 11 12 13 14 16 17 14 12 13 13 13 13 14 13 14 14 14 13 13 13 13 13 13 13 12 14 15 14 13 12 13 14 14 13 16 25 24 23 23 18 11 9 8 8 8 8 8 7 7 7 7 8 6 7 6 4 4 10 14 15 16 17 17 18 20 19
15 16 16 17 18 15 15 17 16 17 18 17 15 14 14 15 12 15 9 9 12 14 15 15 13 12 13 13 12 14 15 14 15 14 13 13 14 14 14 14 16 14 12 14 15 14 14 14 14 15 14 13 11 19 23 24 23 23 22 15 8 8 8 9 9 9 8 7 7 7 7 4 3 10 9 5 4 6 12 17 17 18 19 20 20
15 14 15 15 15 15 16 16 16 17 17 16 13 11 13 11 8 3 7 11 12 12 12 13 11 11 12 12 13 13 14 14 13 12 13 14 15 17 16 14 12 12 14 14 13 15 14 14 14 14 13 12 11 18 23 23 22 23 22 16 8 9 9 8 9 8 8 8 9 7 5 4 4 5 6 6 6 7 8 9 10 10 10 14 19
14 15 16 15 15 16 17 19 19 19 17 16 15 13 12 11 5 7 9 10 12 12 12 12 12 11 10 11 13 13 13 12 13 14 14 15 16 14 14 14 14 16 16 16 16 15 14 13 12 11 11 11 9 19 22 22 21 22 22 16 8 8 7 7 8 8 8 9 9 6 5 5 5 5 6 7 8 9 8 8 8 9 11 11 12
14 14 15 15 16 16 15 16 16 17 17 15 14 13 10 12 6 7 7 9 10 11 12 10 11 12 13 14 14 14 14 13 14 14 15 15 15 16 17 14 13 11 10 10 10 11 13 12 10 10 9 9 8 20 21 21 22 21 22 10 9 8 7 7 8 9 9 8 7 5 5 6 6 6 9 14 12 8 7 8 10 10 10 13 14
14 13 14 13 13 14 15 14 15 15 16 14 13 11 9 8 6 7 5 6 7 10 12 12 13 14 14 14 15 15 15 15 15 15 16 16 16 15 13 11 13 13 13 13 13 11 10 11 11 10 10 9 8 17 22 22 22 23 16 8 9 7 7 9 8 8 6 5 5 5 6 6 6 6 10 13 13 13 8 9 9 10 12 12 11
13 14 14 15 15 14 15 14 15 16 15 12 12 11 8 6 6 4 4 6 7 12 12 12 14 14 15 14 14 15 16 15 15 18 18 16 14 11 12 12 15 14 14 13 11 10 9 10 12 12 12 11 10 16 23 22 22 23 15 9 8 8 7 6 4 4 3 4 5 13 11 8 8 8 11 13 13 11 8 8 10 12 11 9 12
12 13 15 16 16 15 14 15 16 18 18 14 11 9 7 6 5 5 4 5 8 9 6 10 11 9 9 10 11 13 14 16 17 17 15 15 15 14 11 10 10 10 10 9 10 10 10 10 10 11 14 13 10 14 22 21 23 22 16 8 8 8 7 6 5 4 5 5 6 9 13 11 9 9 14 13 14 11 8 9 10 9 12 13 13
13 12 13 13 12 14 17 18 17 17 16 15 12 11 9 6 5 4 4 7 5 5 5 6 4 1 4 7 9 11 12 14 15 12 11 12 10 10 12 12 10 9 9 9 9 10 12 10 10 10 11 10 10 9 14 23 22 22 20 10 8 9 9 9 7 6 4 5 7 7 8 11 12 13 13 13 13 14 10 8 7 8 10 10 9
12 12 13 13 14 13 13 14 13 13 14 13 11 12 12 9 7 6 8 4 4 4 4 2 0 1 2 4 5 9 12 10 9 11 10 10 10 12 11 12 12 9 9 9 10 9 9 9 9 9 9 9 9 10 13 22 21 23 23 17 9 9 8 8 8 7 7 7 6 6 6 9 11 11 12 13 14 15 15 10 7 7 8 13 16
8 10 11 13 14 15 16 16 13 14 12 11 10 13 12 10 9 11 8 5 5 2 0 0 1 2 3 4 4 3 3 5 6 9 10 10 8 8 10 11 9 10 12 11 10 9 9 9 7 8 8 9 10 15 10 20 22 24 23 21 11 10 10 9 8 7 8 7 7 6 5 7 10 11 12 14 15 15 17 9 9 16 21 21 15
16 14 10 10 13 14 15 15 14 12 11 9 9 12 12 11 12 11 6 4 3 2 0 1 1 2 2 2 2 3 4 3 5 6 9 10 8 10 10 10 11 11 12 12 11 10 10 10 8 8 7 7 8 11 15 12 22 23 24 21 19 14 19 10 8 8 9 7 6 6 5 9 10 11 12 14 15 16 13 10 16 18 19 21 17
13 11 13 12 13 14 14 12 11 11 10 10 9 11 11 11 14 8 6 4 3 1 0 0 1 1 2 2 2 2 2 2 5 6 7 9 9 9 9 10 11 11 11 12 10 10 11 11 10 8 6 5 5 6 14 17 16 23 21 22 21 20 20 11 9 7 6 5 4 4 4 10 10 11 13 13 14 14 10 15 16 17 18 16 8
13 13 12 11 13 15 15 15 13 12 11 10 8 9 12 12 12 7 6 4 3 1 0 2 2 3 3 3 4 5 6 6 6 8 9 9 9 10 10 9 10 10 11 12 11 11 9 7 6 8 8 8 6 6 6 14 19 19 21 20 20 20 18 18 9 6 6 6 6 10 11 9 8 9 11 12 10 11 15 15 16 17 15 6 7
12 11 12 12 13 13 14 16 16 12 11 10 9 7 11 13 9 6 4 3 3 3 4 5 4 5 6 6 7 5 6 6 8 8 9 9 11 11 11 10 10 10 10 11 12 8 7 7 8 8 9 9 10 7 8 10 12 16 16 20 20 19 17 16 11 7 9 10 11 9 5 3 5 6 5 4 5 7 13 15 16 14 6 6 6
13 13 13 13 12 14 16 17 18 14 10 10 11 9 9 11 11 8 4 4 5 6 7 6 7 6 6 7 9 8 8 8 9 8 8 8 9 9 10 11 11 12 12 11 11 10 9 8 9 9 7 8 8 10 9 9 8 8 8 10 12 11 15 13 7 6 7 3 4 3 1 3 2 5 7 8 9 10 8 8 6 5 5 6 6
11 12 13 12 13 15 17 18 17 16 13 12 12 12 11 11 11 7 4 4 7 8 9 9 9 8 8 9 9 10 11 9 10 11 11 10 10 11 13 14 16 16 15 14 13 14 14 14 13 12 12 11 12 11 11 11 10 9 8 7 6 7 6 5 6 5 4 5 4 3 4 4 2 2 2 2 4 4 6 6 6 5 6 7 9
13 11 11 13 13 15 16 17 18 15 14 13 14 13 12 11 11 8 4 7 9 10 10 9 8 7 9 9 9 10 11 11 11 11 11 12 14 15 15 13 11 10 13 16 16 15 14 14 14 14 13 9 7 12 13 13 13 15 13 10 8 8 7 6 8 10 7 5 5 3 2 2 1 1 3 4 4 5 5 6 6 6 5 5 6
13 12 13 14 15 15 17 18 17 15 14 14 14 13 12 11 10 8 5 8 11 9 9 10 8 9 8 8 8 9 10 10 10 11 11 9 7 12 9 9 9 12 15 13 12 12 13 13 14 12 15 19 19 16 20 25 22 22 21 19 16 16 14 11 13 16 10 5 4 4 1 0 1 1 3 4 5 4 5 6 5 7 7 6 7
14 15 15 15 15 16 16 18 18 16 15 15 15 14 14 13 12 9 8 10 10 9 9 9 8 9 11 11 10 9 9 8 8 7 7 8 6 7 14 13 8 11 14 15 16 15 16 17 12 12 10 8 10 19 26 25 25 24 23 21 20 19 18 18 16 12 5 6 5 3 2 2 2 3 4 5 5 4 5 5 6 5 6 7 8
Wind_Direction
247 247 244 212 197 198 197 189 190 189 188 182 182 187 185 182 176 185 182 174 173 173 176 172 175 173 177 190 196 187 186 179 185 188 187 189 184 183 180 176 173 169 169 164 163 156 153 152 151 157 153 149 149 159 158 153 148 139 131 120 121 91 53 297 267 233 9 317 234 265 296 286 284 251 235 132 351 323 332 360 321 330 318 336 335
268 268 244 215 206 199 189 184 175 178 194 183 187 189 186 180 185 183 175 180 183 181 180 182 184 185 183 192 186 180 179 184 190 192 191 186 185 184 182 178 174 174 170 167 161 161 159 162 163 165 160 158 156 149 150 150 141 133 138 88 54 124 135 142 326 86 20 39 322 331 314 322 323 68 178 352 358 347 343 66 316 326 327 324 338
256 258 247 218 210 199 188 190 193 193 187 188 191 182 182 185 188 179 181 180 185 182 178 187 187 186 185 178 178 176 198 196 188 184 174 183 189 186 182 179 176 175 171 169 167 170 167 163 169 165 164 158 147 151 155 156 160 153 155 138 113 55 111 33 40 66 145 276 215 26 349 12 330 351 304 359 330 321 338 45 353 331 321 322 335
254 252 250 217 205 202 195 196 197 192 186 191 183 186 186 189 184 182 182 183 182 184 186 185 174 154 133 131 149 148 172 163 162 157 175 171 192 189 189 183 180 175 173 173 171 172 170 170 164 168 168 165 157 155 162 166 159 155 147 140 133 106 91 65 46 67 90 31 13 46 267 95 338 331 332 304 228 261 233 338 351 332 325 326 351
252 256 252 217 203 205 199 200 183 190 191 190 188 188 188 188 184 180 180 184 184 182 179 161 140 127 114 97 103 93 80 143 156 193 190 188 181 194 195 177 178 179 178 179 175 175 173 171 171 169 164 164 156 157 165 172 170 166 158 145 150 139 141 132 346 51 60 65 137 50 350 11 239 276 332 282 331 345 339 325 324 334 322 307 309
248 252 253 222 215 204 206 194 192 199 198 197 191 188 182 182 179 180 179 182 183 179 171 163 168 163 154 154 168 183 186 179 195 196 187 192 197 174 165 184 180 177 180 179 179 174 178 176 172 166 166 165 164 162 158 151 166 162 174 157 149 143 135 129 130 360 80 108 130 134 146 197 310 309 20 310 275 253 236 235 261 254 251 299 295
246 250 256 227 214 199 204 199 199 198 206 189 183 185 182 178 180 180 179 180 178 175 171 170 171 177 181 185 185 187 193 208 203 187 190 190 159 177 184 179 183 179 184 181 181 181 176 175 174 173 167 164 160 152 163 172 169 170 164 152 166 148 126 133 161 169 12 18 107 149 119 121 136 357 290 330 324 329 178 183 264 224 287 303 289
238 238 241 233 212 200 203 205 196 206 191 171 179 177 181 180 177 180 179 178 179 174 177 179 180 184 187 191 192 196 200 199 185 189 176 172 179 183 178 185 185 185 180 184 182 181 178 176 174 170 168 170 164 169 168 165 156 156 161 165 154 154 154 144 158 158 140 208 115 97 89 85 144 179 186 244 272 307 311 295 173 139 14 250 271
236 237 235 222 211 209 206 197 206 190 163 177 183 183 178 174 176 176 181 179 179 178 180 186 187 185 188 188 197 207 199 188 171 170 176 177 183 181 183 184 184 187 185 181 183 181 179 177 175 174 172 173 170 163 162 162 165 161 159 153 165 163 157 147 131 166 148 173 131 255 127 176 234 190 194 159 213 261 282 290 307 314 299 245 259
235 232 235 222 216 212 207 197 178 188 184 177 171 168 174 172 178 180 186 182 179 181 185 187 188 183 189 196 200 195 186 169 168 179 180 177 188 186 185 182 186 185 187 183 179 182 180 178 180 181 178 171 169 168 162 163 165 164 164 161 159 156 151 142 151 161 165 166 165 159 146 119 93 294 221 193 241 217 250 272 291 306 321 328 328
242 234 239 233 216 209 174 186 188 172 170 168 171 175 175 177 180 184 186 178 180 185 184 190 190 190 197 197 198 194 186 174 172 185 179 180 192 190 188 190 184 188 180 187 185 180 183 182 182 183 175 172 168 168 174 169 168 164 161 156 160 156 158 150 148 156 159 161 169 169 186 177 193 189 203 205 223 255 283 263 261 260 276 298 292
259 227 234 209 176 182 175 190 177 179 165 174 177 175 178 180 177 183 184 188 185 185 188 192 191 199 202 198 200 198 185 186 189 189 187 189 191 189 186 177 189 185 184 185 189 185 179 184 182 176 181 176 178 172 166 164 160 153 154 158 167 164 155 153 156 158 166 169 177 176 184 182 195 204 223 223 218 252 259 278 287 301 282 219 262
254 232 216 196 194 186 192 192 171 179 188 183 180 178 177 179 182 183 193 189 188 185 190 193 194 201 201 200 202 196 196 195 195 193 190 190 188 185 180 190 182 184 193 190 195 184 181 180 182 184 184 185 171 166 165 160 158 158 160 163 166 170 170 161 162 174 169 174 186 185 179 189 208 199 209 227 239 253 264 288 283 283 287 293 284
255 224 207 205 203 200 196 189 191 189 188 182 180 181 183 185 187 191 197 187 188 189 194 194 201 203 200 200 199 193 201 199 199 198 192 192 187 189 188 188 187 194 188 195 189 181 186 189 185 185 178 170 168 167 164 165 162 163 162 164 174 176 159 161 161 164 166 173 161 163 184 197 207 194 208 216 247 274 279 283 303 294 282 288 285
254 219 208 213 211 199 194 196 193 190 184 182 183 187 183 190 190 196 190 192 192 195 193 199 204 203 200 201 198 197 202 200 206 201 191 191 191 190 192 190 192 194 192 192 174 184 186 179 182 179 176 173 168 166 166 164 163 158 161 163 166 165 163 155 158 155 158 158 155 164 186 203 209 205 204 238 237 242 252 283 312 318 313 257 296
316 226 229 230 218 204 199 199 197 186 182 185 189 188 192 198 197 197 196 193 194 194 199 203 206 201 202 201 203 200 200 201 206 204 200 193 192 192 193 192 194 187 187 176 183 181 181 180 177 180 173 172 172 170 166 166 165 160 160 161 167 172 157 155 156 149 153 155 160 163 171 218 189 200 215 235 237 243 254 253 269 283 291 309 317
323 268 257 255 238 219 207 198 187 180 182 192 195 193 197 195 195 198 198 192 195 199 202 202 201 198 205 207 204 202 202 202 204 202 199 190 188 195 192 194 184 183 182 180 177 181 180 177 177 175 177 175 171 171 168 165 164 163 165 164 166 166 152 160 153 154 157 152 160 171 189 205 203 193 222 227 232 247 248 242 235 240 261 275 313
291 266 255 242 226 229 224 209 198 194 193 194 197 198 201 199 201 200 197 198 203 200 201 197 196 200 201 203 205 206 207 209 205 202 195 187 191 189 186 183 194 186 176 177 174 176 178 177 177 178 177 174 175 169 168 166 162 165 162 161 159 155 153 155 161 155 158 155 165 172 186 204 189 189 211 213 219 226 232 236 231 236 212 245 268
287 269 255 249 234 226 214 208 207 205 202 202 198 188 192 202 206 201 202 207 206 205 208 208 203 205 206 205 203 204 206 206 205 199 190 197 194 189 187 191 175 178 177 175 175 176 177 178 176 176 176 178 172 170 165 164 163 156 157 157 162 161 162 165 166 157 164 158 170 190 190 198 184 195 204 204 215 215 221 224 241 224 233 242 262
274 266 255 246 240 235 228 215 201 202 200 194 188 189 201 205 198 206 209 199 193 200 200 204 204 204 206 205 204 204 203 202 199 192 195 200 198 188 183 179 188 175 183 176 177 179 178 177 178 174 176 174 172 167 164 160 159 160 160 162 171 167 169 171 168 163 162 166 175 192 198 187 187 185 202 207 214 224 206 225 226 225 245 242 256
293 284 276 261 246 239 239 254 244 213 192 184 189 197 204 194 206 206 203 200 202 205 200 210 204 210 206 204 204 202 200 196 192 194 198 200 197 191 188 183 158 185 179 180 183 182 179 177 173 174 175 175 171 168 166 161 163 165 169 170 171 174 172 171 158 163 162 168 181 194 202 192 173 195 208 208 216 218 222 229 230 236 245 239 248
266 260 252 253 248 234 220 219 228 208 217 202 199 193 192 198 208 208 208 206 205 208 206 209 204 208 205 207 205 201 197 190 192 193 198 197 195 193 186 167 181 180 176 183 183 179 177 173 173 174 175 174 173 168 167 165 168 170 174 168 171 170 169 164 162 172 171 176 181 195 206 174 185 196 206 207 210 211 219 225 230 231 244 250 237
275 275 274 273 279 278 217 201 212 216 212 207 201 200 204 207 204 204 204 213 206 208 207 207 206 206 208 207 203 196 191 192 191 193 199 197 196 191 183 183 179 176 177 180 179 176 175 173 173 174 173 175 174 171 172 171 173 172 170 171 171 171 171 171 175 180 177 176 182 195 200 183 186 202 217 220 213 218 212 222 236 229 242 243 245
273 276 272 280 290 265 241 215 216 222 223 215 210 215 217 214 208 204 207 215 212 215 207 205 206 209 207 200 199 193 190 192 194 197 199 196 190 188 187 189 180 170 174 177 172 174 172 175 175 175 177 174 172 172 171 174 172 171 170 171 171 173 175 178 178 177 178 181 190 197 199 188 187 203 223 223 221 218 214 217 233 237 238 246 246
267 272 271 269 257 237 231 230 225 226 222 212 208 212 215 218 212 210 214 214 210 209 204 206 205 207 201 199 197 190 193 195 200 198 197 190 187 184 183 187 179 175 174 166 170 170 174 175 179 178 176 175 175 170 170 171 171 171 171 169 172 173 178 178 179 181 183 184 191 196 191 180 181 205 221 221 219 217 214 219 230 235 237 244 243
258 276 301 262 242 239 246 237 226 221 217 219 219 218 219 222 220 213 217 215 212 204 205 204 204 203 201 198 196 192 197 199 201 198 194 188 183 181 182 184 183 177 170 172 169 170 176 181 178 177 176 174 172 171 171 170 169 167 167 171 171 175 178 177 180 181 184 191 191 196 191 186 190 205 220 219 218 224 213 220 227 232 235 237 238
259 254 250 251 243 235 235 239 237 237 229 224 225 226 225 223 225 219 217 214 211 202 205 204 204 203 201 201 196 199 200 200 198 197 189 181 182 182 179 183 182 178 172 171 174 171 174 176 176 171 175 172 168 167 167 168 169 170 171 172 175 176 176 173 182 181 185 188 194 196 196 197 200 211 217 223 223 223 221 226 225 231 236 234 239
289 290 277 278 283 290 286 272 264 251 241 238 231 228 226 222 224 218 213 210 204 197 204 204 202 202 204 202 202 203 202 200 195 186 180 182 177 176 182 179 173 178 179 175 173 174 170 169 172 172 170 165 166 168 169 171 173 174 174 177 175 173 172 176 176 185 186 193 195 197 195 203 212 216 215 219 219 222 221 230 230 232 235 239 242
277 267 266 264 266 270 274 271 260 254 251 245 242 237 230 232 234 229 210 210 200 197 204 204 203 206 207 204 203 201 194 186 182 181 178 178 179 177 176 174 177 179 180 176 171 167 163 166 168 170 168 169 172 176 176 175 174 176 176 174 174 172 173 174 178 185 192 194 200 202 208 211 217 226 228 227 223 221 218 227 232 227 233 240 246
256 262 260 253 248 250 252 255 255 248 244 246 245 241 231 225 226 220 209 209 185 203 203 203 205 209 207 202 197 188 185 181 179 180 182 177 174 173 173 174 179 178 175 170 167 169 170 171 169 172 173 175 181 182 182 180 177 173 173 172 171 174 172 173 173 180 190 198 205 207 216 225 229 229 232 236 240 244 247 249 246 243 252 257 259
315 291 271 264 260 255 255 254 254 253 248 245 243 242 238 232 233 219 212 205 190 204 203 203 209 210 204 193 186 188 179 182 183 178 174 172 174 171 173 174 174 173 173 172 169 170 177 176 175 174 178 183 184 183 183 184 182 179 171 171 169 165 170 172 175 181 191 200 205 209 213 223 228 234 238 242 248 250 256 260 263 264 263 258 260
358 354 345 325 295 283 278 269 261 256 254 253 252 248 242 237 227 216 215 195 196 202 202 207 210 203 194 188 188 182 179 181 174 178 176 176 168 169 173 175 173 174 176 171 175 179 176 177 178 181 184 185 185 183 184 185 183 180 175 170 166 166 165 172 178 185 190 194 200 207 217 209 217 212 204 231 251 256 259 260 262 266 267 267 266
349 349 347 347 341 323 301 288 280 273 267 261 251 248 243 237 222 221 201 183 197 202 206 209 206 194 193 188 182 180 182 178 181 176 171 166 170 172 174 174 181 179 168 176 181 175 182 181 182 184 188 187 183 183 185 185 184 181 175 168 165 165 168 172 179 184 190 194 198 211 214 193 175 234 246 238 221 242 257 263 267 270 272 272 273
344 340 337 336 337 334 329 316 300 291 288 286 285 270 261 251 237 192 169 199 196 207 206 209 199 196 190 186 181 180 183 182 173 167 166 171 173 181 181 179 170 168 178 181 179 182 181 185 187 187 184 182 180 187 187 186 184 181 176 168 167 167 169 173 176 187 191 196 206 208 190 205 209 215 222 225 230 237 242 248 252 250 255 266 270
332 334 332 332 329 329 329 329 327 317 304 299 294 284 280 284 238 204 202 195 199 199 203 201 194 194 183 182 181 182 181 173 171 170 171 177 180 178 175 177 176 180 180 182 182 183 186 184 183 181 180 182 183 187 187 185 183 181 179 165 162 165 166 174 183 191 198 197 206 201 203 210 215 224 218 231 234 237 239 243 249 255 257 262 271
327 326 323 324 326 325 323 320 318 320 315 308 298 299 301 279 275 235 218 203 198 199 204 194 192 188 187 185 181 181 178 173 171 173 176 180 181 181 181 178 176 180 184 178 184 182 180 179 175 173 174 178 179 191 186 183 181 179 180 163 160 165 167 180 186 187 191 208 210 199 203 218 223 228 238 248 253 255 257 261 262 261 267 271 266
322 322 317 316 316 320 320 319 322 326 324 321 315 305 286 279 264 243 231 219 196 202 202 195 198 193 190 185 182 178 177 174 174 175 182 183 182 184 181 173 175 180 179 184 182 178 172 169 170 172 173 175 178 191 185 182 180 178 174 153 164 160 169 170 183 187 194 203 200 207 213 217 229 229 244 252 258 267 266 262 267 271 267 263 265
322 322 320 324 324 324 324 328 328 329 333 330 317 307 301 291 286 286 251 229 215 217 209 200 203 196 189 185 182 178 176 175 175 183 185 187 183 178 179 175 179 177 182 182 170 167 169 171 172 176 177 172 181 191 185 183 180 179 168 158 157 155 158 162 158 167 175 203 221 226 225 224 231 241 250 260 264 268 267 271 269 268 270 275 284
324 325 325 326 328 325 322 329 336 338 334 334 329 337 353 338 341 338 318 286 254 255 249 227 216 195 188 182 179 179 178 178 183 188 182 178 179 180 172 168 178 176 177 166 169 169 167 171 177 176 178 176 177 189 186 182 179 179 170 152 157 151 155 166 162 173 193 213 228 235 237 235 238 247 254 261 268 271 271 264 271 284 287 284 285
326 328 326 324 324 332 335 339 339 333 328 330 334 341 351 353 348 3 318 271 294 322 303 316 332 253 190 182 185 184 184 183 186 178 178 177 164 159 168 172 172 169 167 168 169 171 170 173 170 172 181 172 174 186 185 183 180 180 170 156 152 158 169 168 168 173 192 215 222 233 235 240 249 256 261 266 272 275 275 281 286 283 284 283 294
329 327 328 330 332 332 328 326 327 327 332 333 339 342 340 345 348 338 288 300 320 330 349 356 16 170 202 203 200 195 188 187 179 174 167 163 169 170 164 168 167 163 160 165 169 168 166 167 170 172 172 169 177 177 188 184 183 182 175 164 162 166 165 165 167 171 193 208 216 218 222 241 248 255 263 269 273 277 284 291 288 280 284 286 292
312 319 325 327 327 327 327 328 330 335 337 340 341 340 334 336 339 317 317 330 333 337 89 86 136 182 190 193 203 210 195 175 163 158 165 169 165 159 164 163 162 162 164 167 167 166 166 164 166 170 171 169 181 186 180 187 184 183 180 169 162 170 168 160 167 180 201 205 208 210 215 237 249 260 267 272 280 289 293 294 290 289 291 297 301
326 326 327 325 324 325 325 323 325 329 337 339 345 339 334 333 328 317 334 346 354 6 13 139 134 144 167 186 184 182 165 147 163 165 163 164 158 159 160 163 162 160 164 167 170 170 166 169 166 172 173 170 179 184 187 187 186 186 184 176 171 172 177 169 174 187 195 191 191 209 217 241 257 265 272 284 293 294 299 293 291 295 300 304 311
314 315 321 327 322 320 318 316 317 324 330 337 348 335 328 327 313 313 333 347 10 19 70 127 133 113 120 127 126 128 119 128 157 161 167 162 165 165 163 171 168 165 168 171 177 178 175 169 164 164 163 158 172 166 189 189 190 187 186 182 176 176 180 176 177 180 170 180 176 162 210 242 256 274 291 297 295 296 295 296 298 302 308 315 326
316 320 321 325 322 318 317 316 321 326 326 325 330 325 320 315 308 323 306 309 322 358 143 189 171 144 136 141 139 156 156 155 164 169 173 173 168 168 170 176 171 176 177 179 180 181 168 154 142 156 157 163 164 166 178 190 191 189 187 186 182 180 182 181 170 155 151 164 180 210 227 243 271 299 300 301 304 300 297 297 302 309 316 330 312
310 314 319 318 318 316 316 315 315 322 323 321 315 312 308 302 304 304 270 241 215 220 233 227 202 180 173 158 163 164 164 166 172 182 186 180 176 178 178 175 180 185 183 183 182 176 165 164 166 152 155 157 164 162 177 181 190 186 184 185 186 187 185 181 153 157 166 186 205 214 221 286 308 305 304 287 275 281 295 304 308 312 313 298 286
314 313 320 319 319 317 314 313 311 315 318 313 313 306 291 292 294 281 248 214 211 217 224 221 210 198 181 174 178 179 175 175 178 182 187 182 180 184 182 182 185 184 187 190 187 159 169 173 172 168 137 146 147 167 173 177 174 180 176 182 183 184 177 180 169 152 176 172 162 133 112 249 295 290 297 295 298 301 304 300 288 283 277 277 280
304 310 314 315 314 312 310 309 307 310 315 311 305 303 300 295 288 276 235 213 222 220 220 217 207 196 190 188 192 182 179 183 188 185 185 186 190 190 190 191 188 189 184 190 186 187 186 181 175 173 168 165 172 175 178 172 172 171 174 174 164 147 147 130 140 156 141 139 121 90 72 67 49 2 307 290 272 263 269 274 278 276 276 276 280
307 305 310 309 307 306 304 303 303 306 309 307 302 299 298 293 288 277 219 221 235 233 230 225 211 199 202 195 192 189 193 191 191 195 201 196 189 191 200 206 207 195 194 188 186 193 192 187 178 174 167 150 142 178 186 179 173 173 169 167 158 155 144 150 172 165 119 101 97 84 73 58 58 320 306 292 277 273 269 265 273 276 272 280 289
302 305 306 302 301 302 305 305 302 305 305 302 300 300 298 294 284 272 226 231 239 239 233 233 217 209 208 194 203 201 200 198 196 198 198 205 213 213 213 208 204 203 211 215 204 199 189 175 180 186 177 174 181 183 175 173 170 171 175 172 167 163 168 167 193 171 143 123 128 117 112 165 252 242 269 276 278 282 289 295 285 297 298 292 282
303 304 301 299 302 305 305 301 300 302 300 299 298 298 297 296 292 271 237 234 235 234 234 234 218 219 210 201 200 201 200 202 201 199 198 197 195 210 216 216 211 205 207 213 206 201 188 186 182 167 174 186 167 163 165 164 168 171 172 172 170 172 171 179 161 125 109 132 146 136 180 185 228 235 253 257 268 276 282 283 287 288 282 282 283